Eden Prairie, MN

10:58 AM CST on February 19, 2017 (GMT -0600)
Flying Cloud

Weather History for KFCM - November, 2014

Change the Weather History Date:

Tuesday, November 11, 2014

  Actual Average Record
Temperature  
Mean Temperature 22 °F -  
Max Temperature 26 °F 43 °F 64 °F (2005)
Min Temperature 19 °F 29 °F 16 °F (2013)
Degree Days  
Heating Degree Days 42    
Moisture  
Dew Point 17 °F    
Average Humidity 76    
Maximum Humidity 84    
Minimum Humidity 60    
Precipitation  
Precipitation 0.00 in - - ()
Sea Level Pressure  
Sea Level Pressure 30.11 in    
Wind  
Wind Speed 16 mph (NNW)    
Max Wind Speed 21 mph    
Max Gust Speed 33 mph    
Visibility 6 miles    
Events Snow    
Averages and records for this station are not official NWS values.
T = Trace of Precipitation, MM = Missing Value Source: NWS Daily Summary

Daily Weather History Graph

Daily Weather History Graph

Search for Another Location

Airport or City:

Trip Planner

Search our weather history database for the weather conditions in past years. The results will help you decide how hot, cold, wet, or windy it might be!

Date:

Astronomy

Nov. 11, 2014 Rise Set
Actual Time 7:05 AM CST 4:49 PM CST
Civil Twilight 6:34 AM CST 5:20 PM CST
Nautical Twilight 5:59 AM CST 5:56 PM CST
Astronomical Twilight 5:24 AM CST 6:30 PM CST
Moon 9:13 PM CST (11/11) 11:13 AM CST (11/11)
Length of Visible Light 10h 46m
Length of Day
9h 43m
Waning Gibbous, 76% of the Moon is Illuminated
Nov 11
Waning Gibbous
Nov 14
Last Quarter
Nov 22
New
Nov 29
First Quarter
Dec 6
Full

Hourly Weather History & Observations

Time (CST) Temp. Windchill Dew Point Humidity Pressure Visibility Wind Dir Wind Speed Gust Speed Precip Events Conditions
12:48 AM 24.8 °F 11.5 °F 19.4 °F 80% 29.92 in 2.5 mi North 17.3 mph 33.4 mph 0.00 in Snow Light Snow
12:53 AM 25.0 °F 10.9 °F 19.9 °F 81% 29.96 in 4.0 mi North 19.6 mph 28.8 mph 0.00 in Snow Light Snow
1:53 AM 25.0 °F 10.6 °F 19.0 °F 78% 29.95 in 10.0 mi North 20.7 mph 25.3 mph 0.00 in   Overcast
2:19 AM 25.0 °F 11.3 °F 19.0 °F 78% 29.93 in 10.0 mi North 18.4 mph 27.6 mph N/A   Overcast
2:53 AM 24.1 °F 11.0 °F 19.9 °F 84% 29.99 in 2.0 mi North 16.1 mph 24.2 mph 0.00 in Snow Light Snow
3:35 AM 24.1 °F 9.4 °F 19.0 °F 81% 29.96 in 3.0 mi NNW 20.7 mph 29.9 mph 0.00 in Snow Light Snow
3:53 AM 24.1 °F 9.4 °F 19.0 °F 81% 30.02 in 4.0 mi NNW 20.7 mph 28.8 mph 0.00 in Snow Light Snow
4:53 AM 24.1 °F 11.0 °F 19.0 °F 81% 30.04 in 6.0 mi NNW 16.1 mph 26.5 mph 0.00 in Snow Light Snow
5:22 AM 24.1 °F 11.0 °F 19.0 °F 81% 30.00 in 2.0 mi NNW 16.1 mph 25.3 mph 0.00 in Snow Light Snow
5:34 AM 24.1 °F 10.1 °F 19.9 °F 84% 30.00 in 1.5 mi NNW 18.4 mph 25.3 mph 0.00 in Snow Light Snow
5:42 AM 24.1 °F 11.0 °F 19.9 °F 84% 30.00 in 1.2 mi NNW 16.1 mph 25.3 mph 0.00 in Snow Light Snow
5:53 AM 24.1 °F 11.5 °F 19.9 °F 84% 30.05 in 1.2 mi NNW 15.0 mph 21.9 mph 0.00 in Snow Light Snow
6:53 AM 24.1 °F 12.5 °F 19.9 °F 84% 30.07 in 1.8 mi NNW 12.7 mph - 0.00 in Snow Light Snow
7:03 AM 24.1 °F 11.5 °F 19.9 °F 84% 30.03 in 2.0 mi North 15.0 mph 24.2 mph 0.00 in Snow Light Snow
7:21 AM 24.1 °F 13.1 °F 19.9 °F 84% 30.03 in 1.5 mi NNW 11.5 mph - 0.00 in Snow Light Snow
7:43 AM 24.1 °F 12.0 °F 19.9 °F 84% 30.05 in 2.5 mi NNW 13.8 mph - 0.00 in Snow Light Snow
7:53 AM 24.1 °F 13.1 °F 19.9 °F 84% 30.09 in 2.5 mi NNW 11.5 mph - 0.00 in Snow Light Snow
8:14 AM 24.1 °F 12.0 °F 19.0 °F 81% 30.05 in 4.0 mi NNW 13.8 mph 20.7 mph 0.00 in Snow Light Snow
8:53 AM 24.1 °F 11.5 °F 19.0 °F 81% 30.11 in 4.0 mi NNW 15.0 mph 23.0 mph 0.00 in Snow Light Snow
9:53 AM 25.0 °F 11.7 °F 18.0 °F 75% 30.11 in 9.0 mi North 17.3 mph 24.2 mph 0.00 in Snow Light Snow
10:53 AM 26.1 °F 14.5 °F 19.0 °F 75% 30.14 in 9.0 mi NNW 13.8 mph - 0.00 in Snow Light Snow
11:53 AM 25.0 °F 12.2 °F 18.0 °F 75% 30.14 in 9.0 mi NNW 16.1 mph 23.0 mph 0.00 in Snow Light Snow
12:53 PM 25.0 °F 13.6 °F 18.0 °F 75% 30.14 in 3.0 mi NW 12.7 mph - 0.00 in Snow Light Snow
1:05 PM 25.0 °F 12.2 °F 18.0 °F 75% 30.11 in 2.0 mi NW 16.1 mph 23.0 mph 0.00 in Snow Light Snow
1:24 PM 26.1 °F 14.5 °F 17.1 °F 69% 30.11 in 6.0 mi NNW 13.8 mph 21.9 mph 0.00 in Snow Light Snow
1:53 PM 26.1 °F 14.5 °F 17.1 °F 69% 30.17 in 9.0 mi NNW 13.8 mph 26.5 mph 0.00 in   Overcast
2:39 PM 26.1 °F 13.6 °F 19.0 °F 75% 30.14 in 3.0 mi NNW 16.1 mph 24.2 mph 0.00 in Snow Light Snow
2:53 PM 26.1 °F 13.1 °F 17.1 °F 69% 30.18 in 5.0 mi NNW 17.3 mph - 0.00 in   Haze
3:53 PM 24.1 °F 13.1 °F 17.1 °F 75% 30.21 in 10.0 mi NNW 11.5 mph - 0.00 in   Overcast
4:53 PM 24.1 °F 11.5 °F 15.1 °F 69% 30.23 in 10.0 mi WNW 15.0 mph - N/A   Overcast
5:53 PM 24.1 °F 12.5 °F 14.0 °F 65% 30.24 in 10.0 mi NW 12.7 mph 19.6 mph N/A   Overcast
6:53 PM 23.0 °F 9.6 °F 12.9 °F 65% 30.25 in 10.0 mi NNW 16.1 mph - N/A   Overcast
7:06 PM 23.0 °F 10.6 °F 12.9 °F 65% 30.22 in 10.0 mi NNW 13.8 mph 21.9 mph N/A   Overcast
7:46 PM 23.0 °F 12.4 °F 12.9 °F 65% 30.22 in 10.0 mi NW 10.4 mph - N/A   Overcast
7:53 PM 23.0 °F 10.6 °F 10.9 °F 60% 30.26 in 10.0 mi NNW 13.8 mph - N/A   Overcast
8:53 PM 23.0 °F 10.1 °F 10.9 °F 60% 30.28 in 10.0 mi NW 15.0 mph - N/A   Overcast
9:53 PM 21.0 °F 8.6 °F 12.0 °F 68% 30.29 in 10.0 mi WNW 12.7 mph - N/A   Scattered Clouds
10:53 PM 19.0 °F 8.2 °F 10.9 °F 71% 30.29 in 10.0 mi WNW 9.2 mph - N/A   Partly Cloudy
11:53 PM 19.0 °F 6.8 °F 10.9 °F 71% 30.30 in 10.0 mi NW 11.5 mph - N/A   Scattered Clouds